SCP
0 -0 0 0 0 0 0 0 0 -0 0 0 0 0 0 0 0 0 1 1 1 0 0 -0 0 1 0 0 0 0 0 1 2 2 2 2 2 1 1 1 2 1 1 1
0 0 0 -0 -0 0 0 -0 0 0 0 -0 -0 0 0 0 0 0 1 1 1 0 0 0 0 0 0 0 0 0 0 0 1 1 1 1 1 1 1 1 1 0 0 0
0 0 0 0 0 0 0 0 0 0 0 0 0 0 0 0 0 0 0 0 1 1 0 0 0 0 1 1 0 1 1 0 0 0 1 1 1 1 1 1 1 0 0 0
0 0 0 0 0 0 0 0 0 0 0 0 0 0 0 0 0 0 0 0 0 0 0 0 0 0 0 0 0 1 1 0 0 0 1 0 1 0 0 1 1 1 1 1
0 0 0 0 0 0 0 0 0 0 0 0 0 0 0 0 0 0 0 0 0 0 0 0 0 0 0 0 0 1 1 1 1 1 0 1 1 1 0 0 0 0 1 1
0 0 0 0 0 0 0 0 0 0 0 0 0 0 0 0 0 0 0 0 0 0 0 0 0 0 0 0 0 1 1 1 1 1 1 1 1 1 1 1 0 0 0 0
0 0 0 0 0 0 0 0 0 0 0 0 0 0 0 0 0 0 0 0 0 0 0 0 0 0 0 0 0 0 1 1 1 1 1 1 1 1 1 1 0 0 0 0
0 0 0 0 0 0 0 0 0 0 0 0 0 0 0 0 0 0 0 0 0 0 0 0 0 0 0 0 1 0 0 1 1 1 2 1 1 1 1 1 1 0 0 0
0 0 0 0 0 0 0 0 0 0 0 0 0 0 0 0 0 0 0 0 0 0 0 0 0 0 0 0 0 0 0 0 0 0 1 1 1 0 0 0 1 0 0 0
0 0 0 0 0 0 0 0 0 0 0 0 0 0 0 0 0 0 0 0 0 0 -0 0 0 0 0 0 0 0 0 0 0 0 0 0 1 0 0 0 0 0 0 0
0 0 0 0 0 0 0 0 0 0 0 0 0 0 0 0 0 0 0 0 0 0 0 0 0 0 0 0 0 0 0 0 0 0 0 0 0 0 0 0 0 0 0 0
0 0 0 0 0 0 0 0 0 0 0 0 0 0 0 0 0 0 0 0 0 0 0 0 0 0 0 0 0 0 0 0 0 0 0 0 0 0 0 0 0 0 0 0
0 0 0 0 0 0 0 0 0 0 0 0 0 0 0 0 0 0 0 0 0 0 0 0 0 0 0 0 0 0 0 0 0 0 0 0 0 0 0 0 0 0 0 0
0 0 0 0 0 0 0 0 0 0 0 0 0 0 0 0 0 0 0 0 0 0 0 0 0 0 0 0 0 0 0 0 0 0 0 0 0 0 0 0 0 0 0 0
0 0 0 0 0 0 0 0 0 0 0 0 0 0 0 0 0 0 0 0 0 0 0 0 0 0 0 0 0 0 0 0 0 0 0 0 0 0 0 0 0 0 0 0
0 0 0 0 0 0 0 0 0 0 0 0 0 0 0 0 0 0 0 0 0 0 0 0 0 0 0 0 0 0 0 0 0 0 0 0 0 0 0 0 0 0 0 0
0 0 0 0 0 0 0 0 0 0 0 0 0 0 0 0 0 0 0 0 0 0 0 0 0 0 0 0 0 0 0 0 0 0 0 0 0 0 0 0 0 0 0 0
0 0 0 0 0 0 0 0 0 0 0 0 -0 -0 -0 0 0 0 0 0 0 0 0 0 0 0 0 0 0 0 0 -0 0 0 0 0 0 0 0 0 0 0 0 0
0 0 0 0 0 0 0 0 0 0 0 0 0 0 0 0 0 0 0 0 0 0 0 0 0 -0 0 0 -0 0 0 0 0 0 0 0 0 0 0 0 0 0 0 0
0 0 0 0 0 0 0 0 0 0 0 0 0 0 0 0 0 0 0 0 0 0 0 0 0 0 0 -0 -0 0 0 0 0 -0 -0 -0 0 0 0 0 0 0 -0 0
0 0 0 0 0 0 0 0 0 0 0 0 0 0 0 0 0 0 0 0 0 0 0 0 0 0 0 -0 0 0 -0 -0 -0 0 0 -0 -0 -0 0 0 0 0 -0 -0
0 0 0 0 0 0 0 0 0 0 -0 0 0 0 0 0 -0 0 0 0 0 0 0 0 0 0 -0 0 0 0 0 0 0 0 0 0 0 -0 0 0 0 0 0 0
0 0 0 0 0 0 -0 0 0 0 0 0 0 0 -0 0 0 0 -0 0 0 0 0 0 0 0 0 0 0 0 0 0 0 0 0 0 0 0 0 0 0 0 0 0
0 0 0 0 0 0 0 0 0 0 0 0 0 0 0 0 0 0 0 0 0 0 0 -0 0 0 0 0 0 -0 0 0 0 0 0 0 0 0 0 0 0 0 0 0
0 0 0 0 0 0 0 0 0 0 0 0 0 0 0 0 0 0 0 0 -0 0 0 0 -0 -0 0 0 0 0 0 0 -0 -0 -0 0 0 0 0 0 0 0 0 0
0 0 0 0 0 0 0 0 0 0 0 0 0 0 0 0 0 0 0 0 0 0 0 0 0 -0 -0 0 0 0 0 0 0 0 0 -0 -0 0 0 0 0 0 0 0
0 0 0 0 0 0 0 0 0 0 0 0 0 -0 -0 0 0 0 0 0 0 0 0 0 0 0 0 0 0 0 0 0 0 -0 -0 -0 -0 -0 -0 -0 -0 -0 0 0
Wind_Speed_500mb
17 15 9 10 9 27 23 17 7 12 17 13 15 18 33 38 39 26 35 35 35 29 19 16 14 13 18 18 23 20 10 9 11 15 18 16 20 28 26 25 25 26 24 24
15 15 15 6 13 22 19 40 10 34 23 17 37 36 36 26 19 19 23 20 13 1 2 10 15 16 20 26 20 27 19 20 19 19 21 21 19 19 22 16 17 19 19 21
8 17 16 10 10 11 11 31 14 15 10 19 19 25 26 22 6 4 4 8 6 7 2 6 8 18 7 24 19 22 30 33 33 33 32 30 29 29 27 26 27 27 22 20
4 12 11 3 29 24 42 33 32 24 16 22 21 32 46 47 42 39 35 34 28 22 20 21 21 22 31 28 31 34 37 42 47 50 49 48 46 44 41 37 35 37 40 38
3 4 14 13 20 17 13 24 27 25 28 43 42 28 41 47 42 40 39 38 36 35 37 38 37 38 41 42 46 44 43 41 40 42 47 49 53 59 63 65 62 57 52 49
5 3 3 7 19 26 21 10 30 37 31 34 38 11 11 53 44 40 43 46 49 50 50 53 56 60 59 56 56 58 60 60 59 61 64 65 63 64 68 69 65 66 70 62
6 9 10 12 33 28 7 1 31 35 35 35 10 19 39 45 53 56 56 52 48 47 49 49 49 49 52 55 52 48 44 46 52 56 58 60 63 65 66 69 71 68 63 62
8 12 5 29 22 11 7 30 31 32 34 34 35 39 40 38 39 45 52 54 50 50 47 45 47 47 48 49 50 53 55 58 58 59 62 68 73 71 67 65 70 65 61 59
9 7 21 37 39 36 31 31 31 31 32 32 37 43 46 44 52 51 56 57 60 60 67 72 70 66 66 72 73 75 73 75 75 79 75 72 72 70 72 70 64 64 68 70
11 13 31 40 33 29 24 20 22 27 35 39 43 39 33 47 55 62 64 58 55 64 70 76 78 74 64 64 71 78 78 82 78 72 72 73 71 70 71 68 61 55 55 57
12 14 37 32 24 19 19 19 29 34 41 28 23 31 43 55 59 59 63 67 67 66 63 67 71 70 71 66 69 72 73 78 83 75 64 68 74 68 64 63 59 57 56 53
6 15 15 17 18 19 26 26 27 34 19 28 36 45 50 50 54 59 63 64 65 65 60 60 58 62 67 67 64 69 70 69 65 69 66 62 62 65 58 60 58 57 56 56
21 18 17 11 25 25 24 29 28 28 34 36 45 52 50 52 53 58 62 60 65 64 61 60 59 61 55 57 57 57 58 58 58 63 67 70 66 68 65 60 61 57 56 51
19 17 16 26 21 22 24 21 26 30 35 40 49 48 52 52 54 55 53 56 59 54 57 54 53 50 46 58 57 54 54 55 55 62 64 60 61 56 56 59 58 62 53 48
21 17 27 20 19 23 22 29 32 35 38 46 44 48 48 48 50 49 50 50 58 57 60 66 65 64 65 64 60 54 52 52 52 52 43 38 38 41 44 53 53 53 50 53
11 16 18 21 20 22 24 31 29 33 39 42 40 38 40 40 42 44 47 55 62 67 72 73 71 74 76 77 67 64 60 46 43 45 37 36 38 44 47 51 49 48 52 52
9 13 11 17 16 22 21 21 24 28 31 31 32 35 40 46 51 58 71 75 74 79 83 78 83 84 81 66 63 63 57 52 39 35 37 37 37 37 35 33 37 43 44 40
15 15 13 12 14 15 19 18 21 28 30 30 34 39 44 51 60 63 65 80 79 77 84 84 84 84 77 69 71 70 48 33 22 26 24 23 24 30 29 36 41 47 47 43
17 19 14 12 13 15 12 19 23 24 26 29 33 36 45 49 54 61 64 58 82 90 86 89 91 105 92 69 59 52 31 7 15 23 31 29 31 33 34 40 42 44 34 35
23 19 10 14 17 20 17 16 19 18 26 34 37 42 45 51 54 48 58 51 59 74 86 81 90 95 103 89 58 53 45 34 30 24 28 35 39 38 34 33 35 34 38 43
25 16 16 20 19 15 14 18 24 31 33 31 36 43 43 38 46 45 48 62 60 68 85 82 82 83 91 106 98 71 47 33 32 36 41 43 37 31 31 25 26 29 38 43
26 16 17 17 13 9 14 12 15 24 28 32 27 32 35 33 42 45 41 52 54 59 76 80 83 78 77 84 91 97 92 75 58 46 38 37 36 33 32 32 30 34 35 32
22 16 12 13 8 9 5 5 13 17 22 29 30 29 38 36 38 42 56 49 46 50 70 79 73 79 78 78 82 84 85 88 90 83 73 62 50 41 37 34 25 20 17 20
15 11 12 11 11 11 8 3 11 13 14 27 30 29 33 42 38 35 40 45 39 43 61 72 71 71 78 78 77 76 74 75 76 76 81 81 76 77 77 69 53 33 22 22
10 13 5 4 7 13 14 11 14 14 15 19 26 26 29 32 41 37 28 37 44 39 52 64 71 68 67 71 72 70 68 68 69 70 70 69 71 79 79 75 73 74 71 66
9 18 10 16 11 12 12 8 13 20 12 15 18 20 22 29 33 36 36 31 33 40 40 53 64 70 63 65 64 65 62 60 59 60 62 65 66 67 65 64 64 70 71 68
21 13 11 20 14 12 8 10 11 9 12 4 14 29 20 21 27 35 27 37 32 27 38 41 52 64 67 60 63 58 60 60 56 54 54 55 56 56 59 60 59 59 60 60
Wind_Direction_500mb
306 116 125 150 43 335 306 257 161 63 71 63 76 79 70 57 46 74 108 110 108 115 120 146 191 246 263 260 307 292 290 9 343 304 284 293 284 285 288 287 287 281 281 271
315 340 112 146 241 227 243 261 182 106 124 141 113 96 85 73 39 27 65 89 98 48 272 216 236 256 269 257 273 298 285 264 268 278 290 293 294 297 298 307 318 312 273 298
316 352 354 359 275 244 66 41 61 74 102 75 62 64 56 43 74 38 319 322 48 100 359 304 333 306 273 233 245 276 291 297 295 284 276 280 283 286 291 300 306 308 307 313
327 3 338 345 17 62 67 42 31 64 70 74 68 65 62 50 46 26 17 11 7 354 330 313 294 293 308 297 291 289 289 294 297 297 295 294 289 286 285 286 289 294 298 301
111 284 281 39 18 21 77 40 26 41 41 37 24 65 57 20 6 358 350 341 334 326 318 312 311 307 305 303 299 294 291 284 286 287 287 286 286 289 291 291 288 284 283 287
339 4 296 8 16 0 346 29 17 38 28 25 22 20 314 348 352 344 333 328 322 317 313 309 307 302 299 299 299 295 292 289 287 286 284 281 280 282 287 287 284 284 284 280
265 221 73 354 8 313 28 201 29 21 15 8 14 334 337 336 330 325 324 322 317 311 309 309 306 296 291 291 289 293 294 293 288 280 278 277 278 283 287 284 284 282 280 280
18 32 57 22 37 76 88 43 33 21 9 4 352 345 354 359 352 338 328 325 319 317 312 308 310 304 298 296 293 289 286 286 286 286 279 276 281 282 284 281 280 276 277 279
122 158 110 81 79 62 52 36 11 353 344 14 11 350 341 338 330 330 326 323 319 316 312 308 307 303 300 300 299 296 295 293 292 291 284 276 273 274 281 286 277 274 276 277
88 26 78 70 60 45 26 1 355 35 5 355 345 351 346 331 330 327 325 328 317 318 316 311 307 309 301 291 291 294 291 290 290 283 280 275 272 274 279 278 276 273 274 274
98 51 86 58 44 18 7 24 17 360 349 0 358 344 337 332 330 334 335 328 324 324 314 305 304 300 302 303 303 298 294 288 291 287 283 277 269 273 276 272 270 272 272 269
127 97 79 46 18 25 46 25 360 348 41 5 350 344 343 342 341 333 334 337 327 327 327 326 316 306 304 311 313 305 298 292 288 287 284 277 271 271 273 268 267 272 269 271
109 89 69 34 65 48 21 2 17 38 11 357 345 348 348 338 334 337 345 347 342 339 337 338 334 327 326 322 318 310 300 295 292 286 283 275 269 265 270 270 267 263 267 269
103 80 52 65 46 17 23 18 1 349 353 353 350 352 349 342 340 343 343 347 349 351 349 345 339 334 322 316 316 316 309 305 291 292 292 277 269 262 266 274 274 276 267 259
73 57 83 64 33 31 16 357 355 354 352 351 353 351 348 346 344 347 348 352 343 340 348 348 342 334 328 324 318 308 309 308 299 302 286 273 272 269 270 275 278 274 280 267
56 72 56 36 31 35 5 360 11 360 352 352 354 360 3 6 6 8 14 11 12 9 2 353 346 340 333 327 318 306 298 294 302 292 283 270 272 273 275 274 274 277 272 268
95 60 31 64 53 30 27 16 4 3 6 21 28 28 30 37 42 38 33 25 22 18 10 7 358 348 338 338 336 329 314 284 293 300 290 280 279 279 276 277 274 272 273 273
106 87 103 86 46 35 42 28 34 41 51 46 44 49 45 34 31 26 24 16 14 12 14 12 5 354 351 348 342 330 315 296 293 299 311 291 281 272 282 283 276 277 275 271
100 111 87 54 33 70 62 64 60 54 39 54 50 35 28 22 22 23 21 10 15 15 11 13 20 21 10 1 359 4 355 18 9 -0 342 327 316 304 295 297 274 293 270 277
127 117 92 61 75 85 76 65 60 41 43 41 29 19 15 20 19 19 20 8 10 11 11 13 18 24 29 20 18 36 42 36 11 1 339 337 329 318 309 299 307 297 288 290
126 117 90 88 83 73 84 47 40 30 36 25 16 17 14 24 20 11 5 12 11 9 13 14 19 21 32 37 35 32 31 20 358 354 353 352 349 342 333 314 300 300 301 284
130 114 92 87 91 63 67 44 51 35 31 31 27 20 22 21 18 16 14 6 9 10 13 16 23 22 26 37 40 41 43 41 33 25 20 6 2 355 350 343 328 317 318 308
138 115 105 106 77 54 83 24 13 25 30 22 25 23 21 19 13 9 16 13 7 12 13 15 24 25 26 30 38 41 41 44 43 41 41 41 36 24 15 8 354 335 324 317
120 98 134 106 142 90 83 92 59 9 34 33 28 26 17 23 22 15 18 19 18 12 15 14 20 27 27 27 31 32 37 37 37 43 41 41 45 49 47 43 36 27 35 53
152 147 126 203 87 145 97 73 37 53 43 33 31 28 22 17 23 17 12 17 27 16 13 15 17 23 29 30 30 31 31 33 37 36 35 38 40 38 40 41 43 45 47 51
169 149 155 127 123 91 79 57 45 51 41 30 15 15 15 23 17 16 22 13 12 30 20 16 15 21 26 28 30 31 32 31 32 36 34 33 33 36 36 33 30 34 38 38
133 154 142 144 110 108 90 66 42 342 357 344 10 36 24 11 7 12 1 22 18 7 23 21 16 20 24 28 29 28 30 33 34 34 36 35 34 34 36 37 35 33 34 34
Wind_Speed_850mb
17 15 9 10 9 27 23 17 7 12 17 13 15 18 33 38 39 26 35 35 35 29 19 16 14 13 18 18 23 20 10 9 11 15 18 16 20 28 26 25 25 26 24 24
15 15 15 6 13 22 19 40 10 34 23 17 37 36 36 26 19 19 23 20 13 1 2 10 15 16 20 26 20 27 19 20 19 19 21 21 19 19 22 16 17 19 19 21
8 17 16 10 10 11 11 31 14 15 10 19 19 25 26 22 6 4 4 8 6 7 2 6 8 18 7 24 19 22 30 33 33 33 32 30 29 29 27 26 27 27 22 20
4 12 11 3 29 24 42 33 32 24 16 22 21 32 46 47 42 39 35 34 28 22 20 21 21 22 31 28 31 34 37 42 47 50 49 48 46 44 41 37 35 37 40 38
3 4 14 13 20 17 13 24 27 25 28 43 42 28 41 47 42 40 39 38 36 35 37 38 37 38 41 42 46 44 43 41 40 42 47 49 53 59 63 65 62 57 52 49
5 3 3 7 19 26 21 10 30 37 31 34 38 11 11 53 44 40 43 46 49 50 50 53 56 60 59 56 56 58 60 60 59 61 64 65 63 64 68 69 65 66 70 62
6 9 10 12 33 28 7 1 31 35 35 35 10 19 39 45 53 56 56 52 48 47 49 49 49 49 52 55 52 48 44 46 52 56 58 60 63 65 66 69 71 68 63 62
8 12 5 29 22 11 7 30 31 32 34 34 35 39 40 38 39 45 52 54 50 50 47 45 47 47 48 49 50 53 55 58 58 59 62 68 73 71 67 65 70 65 61 59
9 7 21 37 39 36 31 31 31 31 32 32 37 43 46 44 52 51 56 57 60 60 67 72 70 66 66 72 73 75 73 75 75 79 75 72 72 70 72 70 64 64 68 70
11 13 31 40 33 29 24 20 22 27 35 39 43 39 33 47 55 62 64 58 55 64 70 76 78 74 64 64 71 78 78 82 78 72 72 73 71 70 71 68 61 55 55 57
12 14 37 32 24 19 19 19 29 34 41 28 23 31 43 55 59 59 63 67 67 66 63 67 71 70 71 66 69 72 73 78 83 75 64 68 74 68 64 63 59 57 56 53
6 15 15 17 18 19 26 26 27 34 19 28 36 45 50 50 54 59 63 64 65 65 60 60 58 62 67 67 64 69 70 69 65 69 66 62 62 65 58 60 58 57 56 56
21 18 17 11 25 25 24 29 28 28 34 36 45 52 50 52 53 58 62 60 65 64 61 60 59 61 55 57 57 57 58 58 58 63 67 70 66 68 65 60 61 57 56 51
19 17 16 26 21 22 24 21 26 30 35 40 49 48 52 52 54 55 53 56 59 54 57 54 53 50 46 58 57 54 54 55 55 62 64 60 61 56 56 59 58 62 53 48
21 17 27 20 19 23 22 29 32 35 38 46 44 48 48 48 50 49 50 50 58 57 60 66 65 64 65 64 60 54 52 52 52 52 43 38 38 41 44 53 53 53 50 53
11 16 18 21 20 22 24 31 29 33 39 42 40 38 40 40 42 44 47 55 62 67 72 73 71 74 76 77 67 64 60 46 43 45 37 36 38 44 47 51 49 48 52 52
9 13 11 17 16 22 21 21 24 28 31 31 32 35 40 46 51 58 71 75 74 79 83 78 83 84 81 66 63 63 57 52 39 35 37 37 37 37 35 33 37 43 44 40
15 15 13 12 14 15 19 18 21 28 30 30 34 39 44 51 60 63 65 80 79 77 84 84 84 84 77 69 71 70 48 33 22 26 24 23 24 30 29 36 41 47 47 43
17 19 14 12 13 15 12 19 23 24 26 29 33 36 45 49 54 61 64 58 82 90 86 89 91 105 92 69 59 52 31 7 15 23 31 29 31 33 34 40 42 44 34 35
23 19 10 14 17 20 17 16 19 18 26 34 37 42 45 51 54 48 58 51 59 74 86 81 90 95 103 89 58 53 45 34 30 24 28 35 39 38 34 33 35 34 38 43
25 16 16 20 19 15 14 18 24 31 33 31 36 43 43 38 46 45 48 62 60 68 85 82 82 83 91 106 98 71 47 33 32 36 41 43 37 31 31 25 26 29 38 43
26 16 17 17 13 9 14 12 15 24 28 32 27 32 35 33 42 45 41 52 54 59 76 80 83 78 77 84 91 97 92 75 58 46 38 37 36 33 32 32 30 34 35 32
22 16 12 13 8 9 5 5 13 17 22 29 30 29 38 36 38 42 56 49 46 50 70 79 73 79 78 78 82 84 85 88 90 83 73 62 50 41 37 34 25 20 17 20
15 11 12 11 11 11 8 3 11 13 14 27 30 29 33 42 38 35 40 45 39 43 61 72 71 71 78 78 77 76 74 75 76 76 81 81 76 77 77 69 53 33 22 22
10 13 5 4 7 13 14 11 14 14 15 19 26 26 29 32 41 37 28 37 44 39 52 64 71 68 67 71 72 70 68 68 69 70 70 69 71 79 79 75 73 74 71 66
9 18 10 16 11 12 12 8 13 20 12 15 18 20 22 29 33 36 36 31 33 40 40 53 64 70 63 65 64 65 62 60 59 60 62 65 66 67 65 64 64 70 71 68
21 13 11 20 14 12 8 10 11 9 12 4 14 29 20 21 27 35 27 37 32 27 38 41 52 64 67 60 63 58 60 60 56 54 54 55 56 56 59 60 59 59 60 60
Wind_Direction_850mb
306 116 125 150 43 335 306 257 161 63 71 63 76 79 70 57 46 74 108 110 108 115 120 146 191 246 263 260 307 292 290 9 343 304 284 293 284 285 288 287 287 281 281 271
315 340 112 146 241 227 243 261 182 106 124 141 113 96 85 73 39 27 65 89 98 48 272 216 236 256 269 257 273 298 285 264 268 278 290 293 294 297 298 307 318 312 273 298
316 352 354 359 275 244 66 41 61 74 102 75 62 64 56 43 74 38 319 322 48 100 359 304 333 306 273 233 245 276 291 297 295 284 276 280 283 286 291 300 306 308 307 313
327 3 338 345 17 62 67 42 31 64 70 74 68 65 62 50 46 26 17 11 7 354 330 313 294 293 308 297 291 289 289 294 297 297 295 294 289 286 285 286 289 294 298 301
111 284 281 39 18 21 77 40 26 41 41 37 24 65 57 20 6 358 350 341 334 326 318 312 311 307 305 303 299 294 291 284 286 287 287 286 286 289 291 291 288 284 283 287
339 4 296 8 16 0 346 29 17 38 28 25 22 20 314 348 352 344 333 328 322 317 313 309 307 302 299 299 299 295 292 289 287 286 284 281 280 282 287 287 284 284 284 280
265 221 73 354 8 313 28 201 29 21 15 8 14 334 337 336 330 325 324 322 317 311 309 309 306 296 291 291 289 293 294 293 288 280 278 277 278 283 287 284 284 282 280 280
18 32 57 22 37 76 88 43 33 21 9 4 352 345 354 359 352 338 328 325 319 317 312 308 310 304 298 296 293 289 286 286 286 286 279 276 281 282 284 281 280 276 277 279
122 158 110 81 79 62 52 36 11 353 344 14 11 350 341 338 330 330 326 323 319 316 312 308 307 303 300 300 299 296 295 293 292 291 284 276 273 274 281 286 277 274 276 277
88 26 78 70 60 45 26 1 355 35 5 355 345 351 346 331 330 327 325 328 317 318 316 311 307 309 301 291 291 294 291 290 290 283 280 275 272 274 279 278 276 273 274 274
98 51 86 58 44 18 7 24 17 360 349 0 358 344 337 332 330 334 335 328 324 324 314 305 304 300 302 303 303 298 294 288 291 287 283 277 269 273 276 272 270 272 272 269
127 97 79 46 18 25 46 25 360 348 41 5 350 344 343 342 341 333 334 337 327 327 327 326 316 306 304 311 313 305 298 292 288 287 284 277 271 271 273 268 267 272 269 271
109 89 69 34 65 48 21 2 17 38 11 357 345 348 348 338 334 337 345 347 342 339 337 338 334 327 326 322 318 310 300 295 292 286 283 275 269 265 270 270 267 263 267 269
103 80 52 65 46 17 23 18 1 349 353 353 350 352 349 342 340 343 343 347 349 351 349 345 339 334 322 316 316 316 309 305 291 292 292 277 269 262 266 274 274 276 267 259
73 57 83 64 33 31 16 357 355 354 352 351 353 351 348 346 344 347 348 352 343 340 348 348 342 334 328 324 318 308 309 308 299 302 286 273 272 269 270 275 278 274 280 267
56 72 56 36 31 35 5 360 11 360 352 352 354 360 3 6 6 8 14 11 12 9 2 353 346 340 333 327 318 306 298 294 302 292 283 270 272 273 275 274 274 277 272 268
95 60 31 64 53 30 27 16 4 3 6 21 28 28 30 37 42 38 33 25 22 18 10 7 358 348 338 338 336 329 314 284 293 300 290 280 279 279 276 277 274 272 273 273
106 87 103 86 46 35 42 28 34 41 51 46 44 49 45 34 31 26 24 16 14 12 14 12 5 354 351 348 342 330 315 296 293 299 311 291 281 272 282 283 276 277 275 271
100 111 87 54 33 70 62 64 60 54 39 54 50 35 28 22 22 23 21 10 15 15 11 13 20 21 10 1 359 4 355 18 9 -0 342 327 316 304 295 297 274 293 270 277
127 117 92 61 75 85 76 65 60 41 43 41 29 19 15 20 19 19 20 8 10 11 11 13 18 24 29 20 18 36 42 36 11 1 339 337 329 318 309 299 307 297 288 290
126 117 90 88 83 73 84 47 40 30 36 25 16 17 14 24 20 11 5 12 11 9 13 14 19 21 32 37 35 32 31 20 358 354 353 352 349 342 333 314 300 300 301 284
130 114 92 87 91 63 67 44 51 35 31 31 27 20 22 21 18 16 14 6 9 10 13 16 23 22 26 37 40 41 43 41 33 25 20 6 2 355 350 343 328 317 318 308
138 115 105 106 77 54 83 24 13 25 30 22 25 23 21 19 13 9 16 13 7 12 13 15 24 25 26 30 38 41 41 44 43 41 41 41 36 24 15 8 354 335 324 317
120 98 134 106 142 90 83 92 59 9 34 33 28 26 17 23 22 15 18 19 18 12 15 14 20 27 27 27 31 32 37 37 37 43 41 41 45 49 47 43 36 27 35 53
152 147 126 203 87 145 97 73 37 53 43 33 31 28 22 17 23 17 12 17 27 16 13 15 17 23 29 30 30 31 31 33 37 36 35 38 40 38 40 41 43 45 47 51
169 149 155 127 123 91 79 57 45 51 41 30 15 15 15 23 17 16 22 13 12 30 20 16 15 21 26 28 30 31 32 31 32 36 34 33 33 36 36 33 30 34 38 38
133 154 142 144 110 108 90 66 42 342 357 344 10 36 24 11 7 12 1 22 18 7 23 21 16 20 24 28 29 28 30 33 34 34 36 35 34 34 36 37 35 33 34 34